Weather History for Kivalina, AK

Change the Weather History Date:

Wednesday, March 13, 2013

  Actual Average Record
Temperature  
Mean Temperature 5 °F -  
Max Temperature 14 °F - - ()
Min Temperature -2 °F - - ()
Degree Days  
Heating Degree Days 60    
Moisture  
Dew Point 0 °F    
Average Humidity 82    
Maximum Humidity 91    
Minimum Humidity 59    
Precipitation  
Precipitation 0.00 in - - ()
Sea Level Pressure  
Sea Level Pressure 30.39 in    
Wind  
Wind Speed 2 mph (ENE)    
Max Wind Speed 14 mph    
Max Gust Speed -    
Visibility 10 miles    
Events      
T = Trace of Precipitation, MM = Missing Value Source: NWS Daily Summary

Daily Weather History Graph

Daily Weather History Graph

Search for Another Location

Airport:

Trip Planner

Search our weather history database for the weather conditions in past years. The results will help you decide how hot, cold, wet, or windy it might be!

Date:

Astronomy

Mar. 13, 2013 Rise Set
Actual Time 9:24 AM AKDT 8:52 PM AKDT
Civil Twilight 8:30 AM AKDT 9:46 PM AKDT
Nautical Twilight 7:24 AM AKDT 10:53 PM AKDT
Astronomical Twilight 6:09 AM AKDT 12:09 AM AKDT
Moon 8:58 AM AKDT (3/13) No Moon Set
Length of Visible Light 13h 16m
Length of Day
11h 27m
Waxing Crescent, 4% of the Moon is Illuminated
Mar 13
Waxing Crescent
Mar 19
First Quarter
Mar 27
Full
Apr 2
Last Quarter
Apr 10
New

Hourly Weather History & Observations

Time (AKDT) Temp. Windchill Dew Point Humidity Pressure Visibility Wind Dir Wind Speed Gust Speed Precip Events Conditions
12:53 AM 6.1 °F - 1.9 °F 83% 30.49 in 10.0 mi Calm Calm - N/A   Overcast
1:53 AM 6.1 °F - 1.0 °F 80% 30.48 in 10.0 mi Calm Calm - N/A   Overcast
2:53 AM 6.1 °F - 1.9 °F 83% 30.47 in 10.0 mi Calm Calm - N/A   Overcast
3:53 AM 6.1 °F -0.9 °F 3.0 °F 87% 30.45 in 10.0 mi East 3.5 mph - N/A   Overcast
4:53 AM 6.1 °F - 3.0 °F 87% 30.44 in 10.0 mi Calm Calm - N/A   Mostly Cloudy
5:53 AM 5.0 °F - 1.9 °F 87% 30.43 in 10.0 mi Calm Calm - N/A   Mostly Cloudy
6:53 AM 6.1 °F - 3.0 °F 87% 30.42 in 10.0 mi Calm Calm - N/A   Overcast
7:53 AM 6.1 °F - 1.9 °F 83% 30.41 in 10.0 mi Calm Calm - N/A   Clear
8:53 AM 1.9 °F - -0.9 °F 88% 30.40 in 10.0 mi Calm Calm - N/A   Clear
9:53 AM -0.0 °F -9.9 °F -2.0 °F 91% 30.39 in 10.0 mi ENE 4.6 mph - N/A   Clear
10:53 AM -2.9 °F -13.3 °F -6.0 °F 87% 30.39 in 10.0 mi ENE 4.6 mph - N/A   Clear
11:53 AM -0.9 °F -12.7 °F -2.9 °F 91% 30.39 in 10.0 mi ESE 5.8 mph - N/A   Clear
12:53 PM -0.0 °F -7.9 °F -2.9 °F 88% 30.39 in 10.0 mi SSE 3.5 mph - N/A   Clear
1:53 PM 1.9 °F - -4.0 °F 76% 30.38 in 10.0 mi Calm Calm - N/A   Clear
2:53 PM 1.9 °F - -2.9 °F 80% 30.37 in 10.0 mi Calm Calm - N/A   Clear
3:53 PM 3.0 °F - -0.0 °F 87% 30.36 in 10.0 mi Calm Calm - N/A   Clear
4:53 PM 3.9 °F -3.4 °F 1.0 °F 88% 30.34 in 10.0 mi West 3.5 mph - N/A   Clear
5:53 PM 5.0 °F -4.1 °F 1.0 °F 84% 30.33 in 10.0 mi WNW 4.6 mph - N/A   Clear
6:53 PM 6.1 °F -0.9 °F 1.9 °F 83% 30.32 in 10.0 mi NNW 3.5 mph - N/A   Clear
7:53 PM 1.9 °F -11.8 °F -4.0 °F 76% 30.32 in 10.0 mi NNE 8.1 mph - N/A   Clear
8:53 PM 12.0 °F 1.5 °F 1.0 °F 61% 30.32 in 10.0 mi East 6.9 mph - N/A   Clear
9:53 PM 3.9 °F -13.7 °F -4.0 °F 70% 30.33 in 10.0 mi ENE 13.8 mph - N/A   Clear
10:53 PM 9.0 °F -5.9 °F -2.9 °F 59% 30.33 in 10.0 mi East 11.5 mph - N/A   Clear
11:53 PM 3.9 °F -6.9 °F -0.9 °F 80% 30.35 in 10.0 mi SE 5.8 mph - N/A   Clear